[[{"header":{"parameterUnit":"m.s-1","parameterCategory":1,"la1":30.2991,"la2":30.254,"lo1":-89.0895,"lo2":-89.0444,"dy":0.0017,"dx":0.0017,"nx":28,"ny":28,"refTime":"2025-04-20T03:00:00:Z","depth":0,"parameterNumber":2,"parameterNumberName":"U-component_of_WINDS"},"data":[0,0,0,0,0,0,0,0,0,0,0,0,0,0,0,0,0,0,0,0,0,0,0,0,0,0,0,0,0,0,0,0,0,0,0,0,0,0,0,0,0,0,0,0,0,0,0,0,0,0,0,0,0,0,0,0,0,0,-5.2279,-5.2279,0,-5.228,-5.228,-5.228,-5.2206,-5.2205,-5.2203,-5.2201,-5.2201,-5.2203,-5.2205,0,0,0,0,0,0,0,0,0,0,0,0,0,-5.2217,-5.2218,-5.2279,-5.2279,-5.2279,-5.228,-5.228,-5.228,-5.2207,-5.2204,-5.2202,-5.22,-5.2201,-5.2203,-5.2205,0,0,0,0,0,0,0,0,0,0,0,0,0,-5.2233,-5.2219,-5.2279,-5.2243,-5.224,-5.228,-5.228,-5.228,-5.2207,-5.2204,-5.2201,-5.2199,-5.22,-5.2203,-5.2205,-5.2281,0,0,-5.2214,-5.2215,0,0,0,0,0,0,0,0,-5.2232,-5.2236,-5.2248,-5.2245,-5.2242,-5.224,-5.2258,-5.228,-5.2208,-5.222,-5.2201,-5.2197,-5.2217,-5.2218,-5.2224,-5.2281,-5.2281,-5.2214,-5.2216,-5.2217,-5.2218,0,0,0,0,0,0,0,-5.2231,-5.2235,-5.2279,-5.2248,-5.2245,-5.2227,-5.2226,-5.2262,-5.2234,-5.2218,-5.2213,-5.2214,-5.2214,-5.2222,-5.2224,-5.2281,-5.2214,-5.2216,-5.2218,-5.2219,-5.24,-5.2403,0,0,0,0,0,0,-5.2235,-5.2235,-5.2279,-5.2279,-5.223,-5.2231,-5.223,-5.2244,-5.2234,-5.223,-5.2217,-5.2211,-5.2219,-5.2221,-5.2224,-5.2311,-5.2217,-5.2219,-5.2221,-5.2397,-5.2401,-5.2404,0,0,0,0,0,0,-5.2234,-5.224,-5.2279,-5.2256,-5.2259,-5.2235,-5.2251,-5.2245,-5.2252,-5.2232,-5.2227,-5.2229,-5.2216,-5.222,-5.2267,-5.231,-5.2221,-5.2223,-5.2393,-5.2398,-5.2403,-5.2486,0,0,0,0,0,0,-5.2233,-5.224,-5.2267,-5.2257,-5.2261,-5.2323,-5.2254,-5.2247,-5.2257,-5.225,-5.2243,-5.2239,-5.2214,-5.2264,-5.227,-5.2312,-5.2225,-5.2389,-5.2396,-5.2401,-5.2479,-5.2493,-5.2505,0,0,0,0,0,-5.2231,-5.229,-5.2269,-5.2275,-5.2295,-5.2325,-5.2327,-5.2298,-5.2261,-5.2289,-5.2277,-5.2239,-5.2305,-5.2269,-5.2276,-5.2319,-5.2386,-5.2394,-5.2401,-5.2473,-5.249,-5.2504,0,0,0,0,0,0,-5.2305,-5.2288,-5.2264,-5.2322,-5.2326,-5.2313,-5.2346,-5.2316,-5.233,-5.2322,-5.2286,-5.2285,-5.2338,-5.2334,-5.2294,-5.2392,-5.2339,-5.2348,-5.2392,-5.2408,-5.242,-5.2419,-5.2228,0,0,0,0,0,-5.2329,-5.2354,-5.2338,-5.2391,-5.2394,-5.2371,-5.2383,-5.236,-5.2362,-5.2363,-5.2354,-5.2358,-5.2379,-5.2394,-5.2413,-5.248,-5.2477,-5.2513,-5.2526,-5.2536,-5.2543,-5.2579,-5.2595,-5.2428,-5.2428,-5.2428,0,0,-5.2376,-5.2371,-5.2389,-5.2406,-5.2406,-5.2434,-5.2372,-5.2404,-5.2424,-5.2368,-5.2411,-5.2406,-5.2408,-5.2466,-5.2491,-5.2464,-5.259,-5.2545,-5.2554,-5.2555,-5.2588,-5.2604,-5.2618,-5.2433,-5.2432,-5.2431,0,0,-5.2478,-5.2476,-5.252,-5.2522,-5.2524,-5.2508,-5.2519,-5.2512,-5.2506,-5.255,-5.2508,-5.2533,-5.2571,-5.2574,-5.2581,-5.2688,-5.2654,-5.2696,-5.2761,-5.2796,-5.2809,-5.2821,-5.2858,-5.2872,-5.2704,-5.2704,-5.2704,0,-5.2536,-5.2576,-5.2546,-5.2582,-5.2591,-5.2543,-5.2588,-5.2592,-5.2599,-5.2607,-5.2577,-5.2625,-5.2623,-5.2681,-5.2707,-5.2715,-5.2726,-5.2694,-5.281,-5.2821,-5.2831,-5.2866,-5.2881,-5.2709,-5.2708,-5.2708,-5.2707,0,-5.2649,-5.2678,-5.2714,-5.2723,-5.2737,-5.2777,-5.2753,-5.2771,-5.2749,-5.2737,-5.2784,-5.2781,-5.2798,-5.2811,-5.2789,-5.2867,-5.285,-5.2816,-5.2761,-5.2852,-5.2885,-5.2898,-5.2716,-5.2714,-5.2712,-5.2711,0,0,-5.2792,-5.2788,-5.2801,-5.2805,-5.2805,-5.2827,-5.2867,-5.2884,-5.29,-5.2909,-5.294,-5.2976,-5.2945,-5.2952,-5.2931,-5.2963,-5.3048,-5.2925,-5.2924,-5.2946,-5.3133,-5.3157,-5.3173,-5.3027,-5.3029,-5.3031,-5.3132,0,-5.2889,-5.2954,-5.293,-5.2997,-5.3024,-5.2981,-5.3016,-5.302,-5.3011,-5.3033,-5.3024,-5.3049,-5.3007,-5.3011,-5.3041,-5.3031,-5.3084,-5.3024,-5.3055,-5.3056,-5.3053,-5.319,-5.3214,-5.3309,-5.3145,-5.3147,-5.3148,0,-5.3009,-5.3023,-5.3093,-5.3091,-5.3101,-5.3132,-5.3148,-5.317,-5.3175,-5.3167,-5.3178,-5.3151,-5.319,-5.3139,-5.3192,-5.3151,-5.3164,-5.3161,-5.3164,-5.3164,-5.3106,-5.3191,-5.3339,-5.3353,-5.3168,-5.3167,-5.3165,0,-5.3105,-5.3142,-5.3189,-5.3194,-5.3193,-5.3216,-5.3217,-5.3219,-5.3232,-5.3247,-5.3255,-5.3274,-5.3284,-5.33,-5.3279,-5.3244,-5.3336,-5.3282,-5.3329,-5.333,-5.3347,-5.3346,-5.3497,-5.336,-5.336,-5.3359,-5.3359,0,-5.3214,-5.3258,-5.3232,-5.326,-5.3309,-5.3283,-5.3332,-5.3329,-5.3332,-5.3359,-5.3325,-5.3352,-5.3324,-5.3349,-5.3334,-5.338,-5.3385,-5.3379,-5.3374,-5.3381,-5.3381,-5.3386,-5.3378,-5.3363,-5.3362,-5.3362,-5.3361,0,-5.3327,-5.3312,-5.336,-5.3356,-5.3356,-5.3392,-5.3389,-5.3416,-5.3407,-5.3442,-5.3449,-5.3434,-5.3462,-5.3444,-5.3471,-5.3461,-5.3522,-5.3509,-5.352,-5.3515,-5.3562,-5.3557,-5.372,-5.3739,-5.3592,-5.3593,-5.3594,0,-5.3396,-5.3429,-5.343,-5.3446,-5.3449,-5.3476,-5.349,-5.3467,-5.3483,-5.3493,-5.3519,-5.3544,-5.3562,-5.3608,-5.36,-5.3621,-5.3607,-5.3663,-5.361,-5.3616,-5.3606,-5.3603,-5.3606,-5.3672,-5.3674,-5.3675,-5.3677,0,-5.3519,-5.3511,-5.3532,-5.3552,-5.357,-5.3584,-5.3595,-5.3611,-5.3588,-5.3608,-5.3636,-5.3651,-5.368,-5.3705,-5.3724,-5.3725,-5.3697,-5.3694,-5.3706,-5.3711,-5.3716,-5.3712,-5.3546,-5.3689,-5.3688,-5.3687,-5.3687,-5.3686,-5.3611,-5.3639,-5.3645,-5.367,-5.3677,-5.3689,-5.3714,-5.371,-5.3733,-5.3755,-5.3741,-5.3774,-5.3781,-5.3803,-5.3809,-5.3835,-5.3812,-5.3829,-5.3833,-5.3837,-5.3843,-5.3714,-5.3838,-5.3838,-5.3838,-5.3837,-5.3837,0,-5.3731,-5.3734,-5.3758,-5.3776,-5.3797,-5.3771,-5.3783,-5.3802,-5.3832,-5.3841,-5.3861,-5.3894,-5.3919,-5.3915,-5.3938,-5.396,-5.3948,-5.3966,-5.3963,-5.3964,-5.3862,-5.3849,-5.3976,-5.3976,-5.3976,-5.3976,-5.3976,-5.3976,-5.3796,-5.3842,-5.3835,-5.3885,-5.3888,-5.392,-5.393,-5.3941,-5.3948,-5.3987,-5.4008,-5.4006,-5.401,-5.4034,-5.4056,-5.4054,-5.4063,-5.4086,-5.408,-5.3985,-5.3971,-5.3957,-5.3945,-5.4089,-5.4089,-5.4178,-5.4179,-5.418]},{"header":{"parameterUnit":"m.s-1","parameterCategory":1,"la1":30.2991,"la2":30.254,"lo1":-89.0895,"lo2":-89.0444,"dy":0.0017,"dx":0.0017,"nx":28,"ny":28,"refTime":"2025-04-20T03:00:00:Z","depth":0,"parameterNumber":3,"parameterNumberName":"V-component_of_WINDS"},"data":[0,0,0,0,0,0,0,0,0,0,0,0,0,0,0,0,0,0,0,0,0,0,0,0,0,0,0,0,0,0,0,0,0,0,0,0,0,0,0,0,0,0,0,0,0,0,0,0,0,0,0,0,0,0,0,0,0,0,4.3213,4.3214,0,4.3282,4.3283,4.3284,4.3325,4.3325,4.3325,4.3325,4.3395,4.3396,4.3398,0,0,0,0,0,0,0,0,0,0,0,0,0,4.3118,4.312,4.3213,4.3214,4.3215,4.3282,4.3283,4.3284,4.3325,4.3325,4.3325,4.3325,4.3394,4.3396,4.3398,0,0,0,0,0,0,0,0,0,0,0,0,0,4.3171,4.312,4.3213,4.3244,4.3247,4.3282,4.3283,4.3284,4.3325,4.3325,4.3325,4.3325,4.3393,4.3396,4.3398,4.3408,0,0,4.3406,4.3407,0,0,0,0,0,0,0,0,4.3168,4.3174,4.3238,4.3241,4.3245,4.3295,4.3275,4.3326,4.3325,4.3295,4.3325,4.3326,4.3361,4.3366,4.3379,4.3411,4.3414,4.3406,4.3408,4.3409,4.3409,0,0,0,0,0,0,0,4.3164,4.3171,4.3241,4.3239,4.3243,4.3254,4.3262,4.3285,4.3326,4.3298,4.3301,4.3308,4.3363,4.3376,4.338,4.3415,4.3406,4.3408,4.341,4.3411,4.3462,4.3462,0,0,0,0,0,0,4.3155,4.3168,4.3238,4.3243,4.3206,4.3255,4.3264,4.3279,4.3325,4.3333,4.3308,4.331,4.3372,4.3377,4.3383,4.3399,4.3409,4.3411,4.3412,4.3462,4.3462,4.3461,0,0,0,0,0,0,4.3153,4.3161,4.3236,4.3206,4.3216,4.3257,4.3273,4.328,4.3293,4.3333,4.3341,4.3314,4.3372,4.338,4.3402,4.3402,4.3412,4.3414,4.3462,4.3462,4.3462,4.343,0,0,0,0,0,0,4.315,4.316,4.3164,4.3206,4.3218,4.3253,4.3273,4.3281,4.3297,4.3301,4.3341,4.3348,4.3373,4.3398,4.3405,4.3406,4.3416,4.3462,4.3462,4.3462,4.3431,4.3429,4.3427,0,0,0,0,0,4.3147,4.3152,4.3164,4.3172,4.3223,4.3253,4.326,4.3289,4.3297,4.3302,4.3328,4.3346,4.3401,4.34,4.3408,4.3409,4.3462,4.3462,4.3462,4.3432,4.3429,4.3427,0,0,0,0,0,0,4.3108,4.3158,4.3172,4.319,4.3217,4.326,4.3266,4.3285,4.3309,4.3311,4.3346,4.3355,4.3375,4.3394,4.3392,4.3423,4.3434,4.3435,4.3409,4.3406,4.3404,4.3399,4.3418,0,0,0,0,0,4.3102,4.3121,4.3164,4.3176,4.3189,4.3225,4.3239,4.326,4.3289,4.33,4.3328,4.3355,4.3379,4.3394,4.3418,4.3435,4.3445,4.344,4.3437,4.3435,4.3436,4.3448,4.3447,4.346,4.346,4.346,0,0,4.3088,4.3118,4.3128,4.3169,4.3192,4.3213,4.3234,4.3254,4.327,4.3303,4.3327,4.3348,4.3381,4.3401,4.3412,4.3418,4.3435,4.3435,4.3433,4.3435,4.3448,4.3447,4.3446,4.346,4.346,4.346,0,0,4.3075,4.3099,4.3113,4.3136,4.3172,4.3196,4.3199,4.324,4.3256,4.328,4.3306,4.3325,4.3364,4.3388,4.3404,4.3402,4.3421,4.3409,4.3397,4.3409,4.3408,4.3407,4.3408,4.3407,4.341,4.341,4.3409,0,4.3055,4.3086,4.3118,4.3137,4.3155,4.3187,4.3202,4.3223,4.3264,4.3275,4.3282,4.3334,4.3359,4.3386,4.3386,4.3398,4.3403,4.3405,4.3405,4.3405,4.3405,4.3406,4.3406,4.3408,4.3408,4.3408,4.3408,0,4.306,4.3081,4.3088,4.3128,4.3147,4.3164,4.3199,4.3214,4.3233,4.3257,4.3282,4.3313,4.3345,4.3352,4.3371,4.3383,4.3386,4.3399,4.3411,4.3401,4.3403,4.3404,4.3406,4.3406,4.3407,4.3407,0,0,4.3023,4.3082,4.3084,4.3103,4.3146,4.3163,4.3182,4.3214,4.3227,4.3254,4.3272,4.3305,4.3318,4.3337,4.3359,4.3369,4.3367,4.3381,4.3382,4.3378,4.3384,4.3375,4.3375,4.338,4.338,4.338,4.3382,0,4.3017,4.3053,4.3083,4.3108,4.3129,4.3161,4.3177,4.3205,4.3229,4.325,4.3276,4.33,4.3314,4.3326,4.3338,4.3365,4.3369,4.3365,4.3397,4.3398,4.3389,4.3376,4.3365,4.3366,4.3383,4.3383,4.3383,0,4.3015,4.3042,4.3069,4.3111,4.3121,4.3136,4.3168,4.3188,4.3221,4.3238,4.326,4.3283,4.3306,4.3315,4.3347,4.3344,4.3359,4.3375,4.3375,4.338,4.339,4.3381,4.3366,4.3366,4.3384,4.3384,4.3384,0,4.2987,4.3031,4.3054,4.3069,4.3118,4.3128,4.3148,4.3182,4.3199,4.3228,4.324,4.327,4.3287,4.331,4.3341,4.3345,4.337,4.3382,4.3385,4.3384,4.3389,4.3388,4.3378,4.3397,4.3397,4.3397,4.3397,0,4.2978,4.2994,4.3042,4.3056,4.3075,4.311,4.3128,4.3151,4.3181,4.3201,4.3229,4.3247,4.3286,4.3309,4.3333,4.3357,4.3364,4.3379,4.3385,4.3376,4.3375,4.3387,4.3388,4.3397,4.3397,4.3397,4.3397,0,4.295,4.2983,4.301,4.3055,4.3066,4.3079,4.3117,4.3132,4.3158,4.3182,4.319,4.323,4.3258,4.3291,4.333,4.3347,4.3369,4.3378,4.3358,4.3362,4.3363,4.3363,4.336,4.3362,4.338,4.3379,4.3379,0,4.2943,4.2956,4.3002,4.3018,4.3038,4.3062,4.3081,4.3116,4.3134,4.3174,4.3184,4.3215,4.3242,4.3286,4.3318,4.3349,4.3359,4.3356,4.3364,4.3356,4.3361,4.336,4.3362,4.3354,4.3354,4.3354,4.3353,0,4.2926,4.2942,4.2968,4.3,4.3022,4.3048,4.3076,4.3087,4.3128,4.3147,4.3177,4.3198,4.3239,4.3269,4.3304,4.3326,4.3347,4.3351,4.3353,4.3345,4.3333,4.3341,4.3353,4.3351,4.3351,4.3351,4.3351,4.3351,4.2909,4.2923,4.2958,4.2987,4.3011,4.3037,4.3054,4.3082,4.3108,4.3144,4.3163,4.3193,4.3228,4.3277,4.3298,4.3322,4.3329,4.3333,4.3334,4.3334,4.3332,4.3329,4.3329,4.3329,4.3329,4.3329,4.3329,0,4.2895,4.292,4.2945,4.2984,4.3007,4.3025,4.3057,4.3075,4.3101,4.3131,4.3157,4.3192,4.3223,4.3258,4.3291,4.3304,4.3314,4.3311,4.3311,4.3316,4.3323,4.3319,4.3302,4.3302,4.3302,4.3302,4.3302,4.3302,4.2891,4.2915,4.2936,4.2974,4.2998,4.3028,4.3045,4.307,4.3094,4.3132,4.3158,4.3181,4.3214,4.325,4.3279,4.3289,4.33,4.3294,4.3307,4.3313,4.3315,4.3317,4.3313,4.3296,4.3296,4.3297,4.3297,4.3297]}]]